Location: Newark
(39.8867°N, 94.3600°W)
Time: 01:11:29
(UTC+00:00)

N. Korean satellite - Pass Details

Date: 30 January 2020
Orbit: 456 x 505 km, 97.2° (Epoch: 27 February)

Event Time Altitude Azimuth Distance (km) Brightness Sun altitude
Rises 11:27:21 0° 24° (NNE) 2,562 10.5 -23.2°
Reaches altitude 10° 11:29:39 10° 36° (NE) 1,685 9.7 -22.8°
Maximum altitude 11:32:47 27° 96° (E) 975 8.8 -22.2°
Drops below altitude 10° 11:35:56 10° 156° (SSE) 1,694 9.7 -21.6°
Sets 11:38:14 0° 169° (SSE) 2,578 10.5 -21.2°
